Weather History for Atlanta Fulton, GA

Change the Weather History Date:

Thursday, February 7, 2013

  Actual Average Record
Temperature  
Mean Temperature 44 °F 45 °F  
Max Temperature 48 °F 56 °F 69 °F (1999)
Min Temperature 39 °F 34 °F 27 °F (2011)
Degree Days  
Heating Degree Days 22 20  
Month to date heating degree days 144  
Since 1 July heating degree days 1960  
Moisture  
Dew Point 42 °F    
Average Humidity 88    
Maximum Humidity 96    
Minimum Humidity 61    
Precipitation  
Precipitation 0.30 in 0.17 in 1.61 in (1965)
Month to date precipitation 1.06  
Year to date precipitation 5.33  
Snow  
Snow 0.00 in - - ()
Month to date snowfall  
Since 1 July snowfall  
Snow Depth -    
Sea Level Pressure  
Sea Level Pressure 30.03 in    
Wind  
Wind Speed 5 mph (NE)    
Max Wind Speed 16 mph    
Max Gust Speed 29 mph    
Visibility 6 miles    
Events Rain    
T = Trace of Precipitation, MM = Missing Value Source: NWS Daily Summary

Daily Weather History Graph

Daily Weather History Graph

Search for Another Location

Airport:

Trip Planner

Search our weather history database for the weather conditions in past years. The results will help you decide how hot, cold, wet, or windy it might be!

Date:

Astronomy

Feb. 07, 2013 Rise Set
Actual Time 7:29 AM EST 6:15 PM EST
Civil Twilight 7:03 AM EST 6:40 PM EST
Nautical Twilight 6:34 AM EST 7:10 PM EST
Astronomical Twilight 6:05 AM EST 7:39 PM EST
Moon 5:04 AM EST (2/7) 3:42 PM EST (2/7)
Length of Visible Light 11h 37m
Length of Day
10h 45m
Waning Crescent, 9% of the Moon is Illuminated
Feb 7
Waning Crescent
Feb 10
New
Feb 17
First Quarter
Feb 25
Full
Mar 4
Last Quarter

Hourly Weather History & Observations

Time (EST) Temp. Windchill Dew Point Humidity Pressure Visibility Wind Dir Wind Speed Gust Speed Precip Events Conditions
12:53 AM 39.9 °F - 36.0 °F 86% 30.10 in 10.0 mi Calm Calm - N/A   Clear
1:53 AM 41.0 °F - 37.0 °F 86% 30.12 in 10.0 mi Calm Calm - N/A   Clear
2:53 AM 43.0 °F 41.3 °F 37.9 °F 82% 30.13 in 10.0 mi ENE 3.5 mph - N/A   Clear
3:53 AM 43.0 °F - 39.0 °F 86% 30.13 in 10.0 mi Calm Calm - N/A   Scattered Clouds
4:53 AM 45.0 °F 42.6 °F 37.9 °F 76% 30.10 in 10.0 mi NE 4.6 mph - N/A   Partly Cloudy
5:53 AM 48.0 °F - 37.0 °F 66% 30.11 in 10.0 mi NE 4.6 mph - N/A   Overcast
6:53 AM 48.9 °F - 36.0 °F 61% 30.11 in 10.0 mi NNW 4.6 mph - 0.00 in Rain Light Rain
7:53 AM 44.1 °F 41.5 °F 43.0 °F 96% 30.13 in 5.0 mi NNE 4.6 mph - 0.11 in Rain Light Rain
8:53 AM 45.0 °F 40.6 °F 42.1 °F 90% 30.11 in 4.0 mi NE 8.1 mph - 0.06 in Rain Light Rain
9:53 AM 45.0 °F 41.2 °F 42.1 °F 90% 30.10 in 6.0 mi ENE 6.9 mph - 0.01 in Rain Light Rain
10:53 AM 46.0 °F 41.4 °F 44.1 °F 93% 30.09 in 4.0 mi NE 9.2 mph - 0.02 in Rain Light Rain
11:02 AM 46.4 °F 41.9 °F 44.6 °F 93% 30.09 in 4.0 mi NE 9.2 mph - 0.00 in Rain Light Rain
11:53 AM 46.9 °F - 44.1 °F 90% 30.08 in 3.0 mi ENE 10.4 mph - 0.04 in Rain Light Rain
12:53 PM 46.0 °F 40.6 °F 43.0 °F 89% 30.06 in 3.0 mi ENE 11.5 mph - 0.03 in Rain Light Rain
1:53 PM 46.0 °F 40.6 °F 43.0 °F 89% 30.01 in 3.0 mi NE 11.5 mph - 0.02 in Rain Light Rain
2:53 PM 46.0 °F 41.4 °F 43.0 °F 89% 29.97 in 4.0 mi ENE 9.2 mph 18.4 mph 0.00 in   Overcast
3:53 PM 46.0 °F 39.3 °F 44.1 °F 93% 29.91 in 4.0 mi ENE 16.1 mph 28.8 mph 0.00 in Rain Light Rain
4:53 PM 46.0 °F 41.0 °F 44.1 °F 93% 29.95 in 4.0 mi NE 10.4 mph - 0.00 in   Overcast
5:00 PM 46.4 °F 41.9 °F 44.6 °F 93% 29.95 in 4.0 mi NE 9.2 mph - N/A   Overcast
5:53 PM 46.0 °F 41.4 °F 44.1 °F 93% 29.95 in 5.0 mi NE 9.2 mph - N/A   Overcast
6:53 PM 46.9 °F - 45.0 °F 93% 29.95 in 8.0 mi ENE 8.1 mph - N/A   Overcast
7:53 PM 46.9 °F - 44.1 °F 90% 29.95 in 9.0 mi ENE 10.4 mph - N/A   Overcast
8:53 PM 46.9 °F - 44.1 °F 90% 29.96 in 8.0 mi ENE 9.2 mph - N/A   Overcast
9:53 PM 46.9 °F - 45.0 °F 93% 29.97 in 3.0 mi NE 5.8 mph - 0.01 in   Overcast
10:53 PM 46.0 °F 44.8 °F 45.0 °F 96% 29.97 in 3.0 mi NE 3.5 mph - N/A   Overcast
11:50 PM 46.4 °F 45.2 °F 44.6 °F 93% 29.95 in 5.0 mi NE 3.5 mph - N/A   Overcast
11:53 PM 46.9 °F - 45.0 °F 93% 29.96 in 4.0 mi NE 3.5 mph - N/A   Overcast